Time,TemperatureF,DewpointF,PressureIn,WindDirection,WindDirectionDegrees,WindSpeedMPH,WindSpeedGustMPH,Humidity,HourlyPrecipIn,Conditions,Clouds,dailyrainin,SoftwareType,DateUTC
2013-08-21 00:11:00,65.0,54.0,-100.00,East,90,2.0,3.0,69,-99.99,,,-99.99,,2013-08-21 07:11:00,
2013-08-21 00:42:00,64.0,54.0,-100.00,East,90,3.0,3.0,70,-99.99,,,-99.99,,2013-08-21 07:42:00,
2013-08-21 00:53:00,63.0,54.0,-100.00,East,90,1.0,3.0,73,-99.99,,,-99.99,,2013-08-21 07:53:00,
2013-08-21 01:12:00,62.0,53.0,-100.00,East,90,2.0,3.0,72,-99.99,,,-99.99,,2013-08-21 08:12:00,
2013-08-21 01:22:00,62.0,54.0,-100.00,East,90,1.0,3.0,73,-99.99,,,-99.99,,2013-08-21 08:22:00,
2013-08-21 01:43:00,61.0,53.0,-100.00,East,90,1.0,3.0,75,-99.99,,,-99.99,,2013-08-21 08:43:00,
2013-08-21 01:52:00,62.0,53.0,-100.00,East,90,1.0,2.0,74,-99.99,,,-99.99,,2013-08-21 08:52:00,
2013-08-21 02:11:00,61.0,53.0,-100.00,East,90,1.0,3.0,74,-99.99,,,-99.99,,2013-08-21 09:11:00,
2013-08-21 02:22:00,61.0,53.0,-100.00,East,90,1.0,3.0,75,-99.99,,,-99.99,,2013-08-21 09:22:00,
2013-08-21 02:43:00,61.0,54.0,-100.00,SE,135,1.0,3.0,77,-99.99,,,-99.99,,2013-08-21 09:43:00,
2013-08-21 02:53:00,60.0,54.0,-100.00,SE,135,1.0,3.0,78,-99.99,,,-99.99,,2013-08-21 09:53:00,
2013-08-21 03:12:00,60.0,53.0,-100.00,East,90,2.0,3.0,79,-99.99,,,-99.99,,2013-08-21 10:12:00,
2013-08-21 03:23:00,60.0,54.0,-100.00,East,90,1.0,1.0,80,-99.99,,,-99.99,,2013-08-21 10:23:00,
2013-08-21 03:43:00,59.0,54.0,-100.00,East,90,0.0,2.0,81,-99.99,,,-99.99,,2013-08-21 10:43:00,
2013-08-21 03:52:00,59.0,54.0,-100.00,SE,135,1.0,1.0,82,-99.99,,,-99.99,,2013-08-21 10:52:00,
2013-08-21 04:11:00,59.0,53.0,-100.00,East,90,1.0,3.0,82,-99.99,,,-99.99,,2013-08-21 11:11:00,
2013-08-21 04:22:00,58.0,53.0,-100.00,East,90,2.0,3.0,82,-99.99,,,-99.99,,2013-08-21 11:22:00,
2013-08-21 04:42:00,58.0,53.0,-100.00,SE,135,1.0,3.0,84,-99.99,,,-99.99,,2013-08-21 11:42:00,
2013-08-21 04:52:00,58.0,53.0,-100.00,East,90,1.0,2.0,85,-99.99,,,-99.99,,2013-08-21 11:52:00,
2013-08-21 05:12:00,58.0,53.0,-100.00,East,90,0.0,2.0,86,-99.99,,,-99.99,,2013-08-21 12:12:00,
2013-08-21 05:22:00,58.0,53.0,-100.00,East,90,1.0,3.0,86,-99.99,,,-99.99,,2013-08-21 12:22:00,
2013-08-21 05:42:00,58.0,53.0,-100.00,East,90,0.0,2.0,86,-99.99,,,-99.99,,2013-08-21 12:42:00,
2013-08-21 05:52:00,57.0,53.0,-100.00,South,180,0.0,6.0,86,-99.99,,,-99.99,,2013-08-21 12:52:00,
2013-08-21 06:12:00,56.0,53.0,-100.00,SE,135,1.0,3.0,88,-99.99,,,-99.99,,2013-08-21 13:12:00,
2013-08-21 06:21:00,57.0,53.0,-100.00,North,0,1.0,3.0,86,-99.99,,,-99.99,,2013-08-21 13:21:00,
2013-08-21 06:42:00,56.0,52.0,-100.00,NE,45,0.0,3.0,86,-99.99,,,-99.99,,2013-08-21 13:42:00,
2013-08-21 06:52:00,56.0,52.0,-100.00,SE,135,1.0,3.0,87,-99.99,,,-99.99,,2013-08-21 13:52:00,
2013-08-21 07:11:00,57.0,53.0,-100.00,SE,135,1.0,3.0,86,-99.99,,,-99.99,,2013-08-21 14:11:00,
2013-08-21 07:21:00,57.0,53.0,-100.00,SW,225,0.0,1.0,85,-99.99,,,-99.99,,2013-08-21 14:21:00,
2013-08-21 07:42:00,57.0,53.0,-100.00,SE,135,0.0,2.0,86,-99.99,,,-99.99,,2013-08-21 14:42:00,
2013-08-21 07:52:00,58.0,53.0,-100.00,East,90,1.0,1.0,83,-99.99,,,-99.99,,2013-08-21 14:52:00,
2013-08-21 08:11:00,59.0,52.0,-100.00,South,180,1.0,3.0,79,-99.99,,,-99.99,,2013-08-21 15:11:00,
2013-08-21 08:22:00,60.0,54.0,-100.00,South,180,1.0,3.0,80,-99.99,,,-99.99,,2013-08-21 15:22:00,
2013-08-21 08:43:00,61.0,53.0,-100.00,NW,315,2.0,4.0,76,-99.99,,,-99.99,,2013-08-21 15:43:00,
2013-08-21 08:54:00,61.0,54.0,-100.00,SW,225,1.0,3.0,76,-99.99,,,-99.99,,2013-08-21 15:54:00,
2013-08-21 09:13:00,63.0,54.0,-100.00,South,180,1.0,3.0,72,-99.99,,,-99.99,,2013-08-21 16:13:00,
2013-08-21 09:24:00,63.0,53.0,-100.00,South,180,1.0,3.0,69,-99.99,,,-99.99,,2013-08-21 16:24:00,
2013-08-21 09:43:00,66.0,53.0,-100.00,South,180,1.0,3.0,64,-99.99,,,-99.99,,2013-08-21 16:43:00,
2013-08-21 09:53:00,66.0,53.0,-100.00,South,180,1.0,4.0,63,-99.99,,,-99.99,,2013-08-21 16:53:00,
2013-08-21 10:13:00,68.0,54.0,-100.00,SE,135,3.0,6.0,61,-99.99,,,-99.99,,2013-08-21 17:13:00,
2013-08-21 10:23:00,70.0,53.0,-100.00,SW,225,3.0,6.0,56,-99.99,,,-99.99,,2013-08-21 17:23:00,
2013-08-21 10:43:00,71.0,54.0,-100.00,South,180,3.0,6.0,55,-99.99,,,-99.99,,2013-08-21 17:43:00,
2013-08-21 10:53:00,72.0,53.0,-100.00,SW,225,3.0,4.0,51,-99.99,,,-99.99,,2013-08-21 17:53:00,
2013-08-21 11:12:00,74.0,52.0,-100.00,SW,225,1.0,6.0,46,-99.99,,,-99.99,,2013-08-21 18:12:00,
2013-08-21 11:22:00,75.0,53.0,-100.00,SW,225,4.0,7.0,46,-99.99,,,-99.99,,2013-08-21 18:22:00,
2013-08-21 11:42:00,78.0,56.0,-100.00,South,180,3.0,6.0,47,-99.99,,,-99.99,,2013-08-21 18:42:00,
2013-08-21 11:52:00,79.0,52.0,-100.00,South,180,3.0,6.0,39,-99.99,,,-99.99,,2013-08-21 18:52:00,
2013-08-21 12:12:00,81.0,51.0,-100.00,East,90,5.0,10.0,35,-99.99,,,-99.99,,2013-08-21 19:12:00,
2013-08-21 12:22:00,82.0,49.0,-100.00,East,90,5.0,11.0,31,-99.99,,,-99.99,,2013-08-21 19:22:00,
2013-08-21 12:42:00,83.0,50.0,-100.00,East,90,5.0,8.0,31,-99.99,,,-99.99,,2013-08-21 19:42:00,
2013-08-21 12:52:00,84.0,48.0,-100.00,East,90,5.0,16.0,29,-99.99,,,-99.99,,2013-08-21 19:52:00,
2013-08-21 13:11:00,84.0,49.0,-100.00,East,90,6.0,10.0,30,-99.99,,,-99.99,,2013-08-21 20:11:00,
2013-08-21 13:22:00,85.0,48.0,-100.00,East,90,5.0,13.0,28,-99.99,,,-99.99,,2013-08-21 20:22:00,
2013-08-21 13:42:00,86.0,47.0,-100.00,East,90,6.0,12.0,26,-99.99,,,-99.99,,2013-08-21 20:42:00,
2013-08-21 13:52:00,86.0,47.0,-100.00,East,90,4.0,16.0,26,-99.99,,,-99.99,,2013-08-21 20:52:00,
2013-08-21 14:12:00,86.0,46.0,-100.00,East,90,6.0,16.0,25,-99.99,,,-99.99,,2013-08-21 21:12:00,
2013-08-21 14:21:00,87.0,46.0,-100.00,East,90,6.0,13.0,24,-99.99,,,-99.99,,2013-08-21 21:21:00,
2013-08-21 14:44:00,88.0,45.0,-100.00,East,90,4.0,13.0,23,-99.99,,,-99.99,,2013-08-21 21:44:00,
2013-08-21 14:54:00,88.0,46.0,-100.00,East,90,4.0,14.0,23,-99.99,,,-99.99,,2013-08-21 21:54:00,
2013-08-21 15:14:00,89.0,45.0,-100.00,East,90,6.0,12.0,22,-99.99,,,-99.99,,2013-08-21 22:14:00,
2013-08-21 15:43:00,90.0,43.0,-100.00,East,90,4.0,8.0,20,-99.99,,,-99.99,,2013-08-21 22:43:00,
2013-08-21 15:53:00,90.0,42.0,-100.00,East,90,6.0,12.0,19,-99.99,,,-99.99,,2013-08-21 22:53:00,
2013-08-21 16:12:00,91.0,43.0,-100.00,East,90,4.0,8.0,19,-99.99,,,-99.99,,2013-08-21 23:12:00,
2013-08-21 16:22:00,91.0,42.0,-100.00,East,90,4.0,13.0,18,-99.99,,,-99.99,,2013-08-21 23:22:00,
2013-08-21 16:42:00,91.0,42.0,-100.00,East,90,6.0,12.0,18,-99.99,,,-99.99,,2013-08-21 23:42:00,
2013-08-21 16:53:00,91.0,44.0,-100.00,North,0,4.0,14.0,20,-99.99,,,-99.99,,2013-08-21 23:53:00,
2013-08-21 17:12:00,91.0,44.0,-100.00,East,90,5.0,13.0,20,-99.99,,,-99.99,,2013-08-22 00:12:00,
2013-08-21 17:21:00,92.0,45.0,-100.00,East,90,5.0,11.0,20,-99.99,,,-99.99,,2013-08-22 00:21:00,
2013-08-21 17:42:00,92.0,44.0,-100.00,East,90,4.0,8.0,19,-99.99,,,-99.99,,2013-08-22 00:42:00,
2013-08-21 17:52:00,92.0,46.0,-100.00,East,90,3.0,8.0,21,-99.99,,,-99.99,,2013-08-22 00:52:00,
2013-08-21 18:11:00,91.0,46.0,-100.00,East,90,3.0,8.0,21,-99.99,,,-99.99,,2013-08-22 01:11:00,
2013-08-21 18:22:00,91.0,47.0,-100.00,East,90,3.0,8.0,22,-99.99,,,-99.99,,2013-08-22 01:22:00,
2013-08-21 18:42:00,90.0,45.0,-100.00,East,90,4.0,10.0,21,-99.99,,,-99.99,,2013-08-22 01:42:00,
2013-08-21 18:52:00,88.0,49.0,-100.00,East,90,3.0,9.0,26,-99.99,,,-99.99,,2013-08-22 01:52:00,
2013-08-21 19:12:00,89.0,44.0,-100.00,East,90,3.0,9.0,21,-99.99,,,-99.99,,2013-08-22 02:12:00,
2013-08-21 19:22:00,87.0,45.0,-100.00,East,90,2.0,6.0,23,-99.99,,,-99.99,,2013-08-22 02:22:00,
2013-08-21 20:12:00,80.0,52.0,-100.00,SE,135,0.0,4.0,37,-99.99,,,-99.99,,2013-08-22 03:12:00,
2013-08-21 20:22:00,78.0,53.0,-100.00,South,180,1.0,4.0,42,-99.99,,,-99.99,,2013-08-22 03:22:00,
2013-08-21 20:45:00,77.0,52.0,-100.00,East,90,2.0,3.0,41,-99.99,,,-99.99,,2013-08-22 03:45:00,
2013-08-21 20:54:00,77.0,51.0,-100.00,East,90,3.0,4.0,40,-99.99,,,-99.99,,2013-08-22 03:54:00,
2013-08-21 21:14:00,76.0,52.0,-100.00,SE,135,1.0,2.0,43,-99.99,,,-99.99,,2013-08-22 04:14:00,
2013-08-21 21:23:00,75.0,52.0,-100.00,East,90,2.0,3.0,45,-99.99,,,-99.99,,2013-08-22 04:23:00,
2013-08-21 21:44:00,74.0,52.0,-100.00,East,90,2.0,4.0,46,-99.99,,,-99.99,,2013-08-22 04:44:00,
2013-08-21 21:54:00,74.0,51.0,-100.00,East,90,2.0,3.0,45,-99.99,,,-99.99,,2013-08-22 04:54:00,
2013-08-21 22:12:00,73.0,50.0,-100.00,East,90,2.0,4.0,44,-99.99,,,-99.99,,2013-08-22 05:12:00,
2013-08-21 22:22:00,72.0,49.0,-100.00,East,90,2.0,4.0,43,-99.99,,,-99.99,,2013-08-22 05:22:00,
2013-08-21 22:43:00,72.0,49.0,-100.00,East,90,2.0,3.0,44,-99.99,,,-99.99,,2013-08-22 05:43:00,
2013-08-21 22:52:00,71.0,48.0,-100.00,East,90,1.0,3.0,45,-99.99,,,-99.99,,2013-08-22 05:52:00,
2013-08-21 23:12:00,70.0,50.0,-100.00,SE,135,1.0,3.0,49,-99.99,,,-99.99,,2013-08-22 06:12:00,
2013-08-21 23:22:00,70.0,49.0,-100.00,East,90,1.0,4.0,47,-99.99,,,-99.99,,2013-08-22 06:22:00,
2013-08-21 23:42:00,70.0,50.0,-100.00,East,90,2.0,3.0,49,-99.99,,,-99.99,,2013-08-22 06:42:00,
2013-08-21 23:52:00,70.0,49.0,-100.00,East,90,2.0,3.0,48,-99.99,,,-99.99,,2013-08-22 06:52:00,